ECMWFFLT1_sfc_thetae_021.txt.gz
Theta_e
289 289 289 289 288 288 288 288 287 287 287 287 287 287 288 288 288 288 288 288 287 287 286 286 286 286 286 286 285 284 284 283 282 281 281 280 280 280 280 279 278 278 278 277 277 276 276 276 276 276 276 275 275 275 275 275 275 274 274 274 275 275
289 289 289 289 288 288 287 286 286 286 287 286 286 287 286 286 286 287 287 287 287 286 286 285 286 286 286 285 284 284 283 283 282 281 280 280 280 280 279 278 278 277 277 276 276 276 276 275 275 275 275 275 275 275 275 274 274 274 274 274 274 275
289 289 289 289 287 286 285 285 286 287 286 286 286 286 286 286 286 286 286 286 286 286 285 285 285 285 285 284 284 284 283 282 282 281 280 279 279 279 278 278 277 277 276 276 276 275 275 275 275 275 275 274 274 274 274 274 274 273 273 273 273 273
288 288 288 285 284 286 285 286 286 285 286 287 287 286 286 286 286 286 286 286 286 285 285 284 284 284 283 283 283 283 282 281 281 280 279 279 278 278 278 277 277 276 276 275 275 275 275 275 275 274 274 274 273 273 274 273 273 272 272 272 272 272
288 288 288 287 287 288 287 286 285 286 286 286 286 286 286 286 287 286 286 285 285 284 284 283 283 283 282 282 282 282 281 281 280 280 279 278 277 277 277 277 276 276 275 275 275 275 274 274 274 274 274 273 273 272 272 273 272 272 272 271 271 271
286 285 286 287 287 287 287 287 287 286 286 286 286 286 286 286 286 286 285 284 284 283 283 282 282 282 282 282 282 281 281 280 279 279 279 278 277 277 276 276 276 275 275 274 274 274 274 274 273 273 273 273 272 272 272 272 272 272 271 271 271 270
286 288 288 288 288 288 288 287 287 286 286 286 285 286 286 286 285 284 284 284 283 282 282 282 282 282 281 281 281 281 280 279 279 278 278 277 276 276 275 275 275 275 274 274 274 273 273 273 273 272 272 272 272 272 271 271 271 271 271 271 270 271
289 289 289 289 288 288 288 287 287 286 286 285 286 286 285 285 285 284 284 283 283 282 282 282 281 281 281 281 281 280 279 279 278 278 277 277 276 275 275 275 274 274 274 274 273 273 273 272 272 272 271 271 271 271 271 271 271 271 271 270 270 270
288 289 289 289 288 287 287 287 286 286 285 285 285 285 285 285 284 284 283 283 283 282 282 282 282 282 281 281 280 279 278 278 277 277 276 276 276 275 274 274 274 274 273 273 272 272 272 271 271 270 270 270 270 270 270 270 270 270 270 270 270 270
291 290 289 288 288 287 286 285 285 285 285 285 284 284 284 284 284 283 283 283 282 282 282 282 282 281 281 281 279 278 278 277 276 276 276 275 274 274 274 273 273 272 272 271 271 271 271 270 270 269 269 269 269 269 269 269 269 270 270 270 270 270
291 291 290 289 287 286 285 284 283 283 283 283 283 283 283 284 283 283 282 282 282 282 282 282 281 280 280 279 278 277 276 276 276 275 274 274 274 274 273 273 272 271 270 270 270 269 270 269 269 269 269 269 269 269 269 270 270 270 270 270 270 271
291 291 290 289 287 286 285 284 283 283 283 282 282 282 283 283 282 282 282 282 282 282 281 281 280 279 279 278 277 276 276 275 274 274 273 273 272 272 271 271 270 270 270 269 269 269 269 269 269 271 274 273 270 270 270 270 270 270 270 270 271 272
291 290 290 289 289 287 286 286 285 283 282 282 281 282 282 283 282 282 282 282 282 281 280 280 279 278 277 277 276 275 274 274 273 272 272 271 270 270 269 269 269 269 269 269 268 268 268 269 269 274 276 276 275 271 271 270 271 271 271 272 272 272
290 289 290 290 290 288 287 286 285 283 282 282 281 282 281 282 282 282 282 282 281 280 279 279 278 277 276 276 275 274 273 273 272 271 271 269 269 269 268 269 269 268 268 269 269 269 269 269 272 275 276 277 278 276 271 271 271 272 273 273 273 273
290 290 291 291 290 290 289 287 286 283 283 282 282 281 280 281 281 281 281 280 279 279 278 278 277 276 275 275 274 273 272 271 271 270 269 269 269 268 268 268 268 268 268 268 268 268 269 269 274 276 277 277 278 278 277 274 274 273 273 274 274 274
291 291 291 291 292 291 291 289 287 287 285 283 281 280 280 280 280 280 279 279 279 278 277 277 276 275 275 274 273 272 271 270 270 270 269 268 268 268 268 267 267 267 267 268 268 269 269 269 274 277 277 277 278 278 278 275 274 274 274 274 274 274
289 289 290 290 290 290 289 288 287 286 282 281 280 280 280 280 280 279 279 278 278 277 277 276 276 275 274 273 272 271 270 270 270 269 268 268 268 267 267 267 267 267 268 269 269 269 269 269 275 277 277 277 277 278 277 275 275 274 274 274 274 273
289 289 290 291 290 289 288 289 287 284 283 281 281 279 280 279 279 279 278 277 277 277 277 276 275 274 273 272 271 270 270 270 269 268 268 267 267 267 267 267 267 267 268 269 268 269 269 270 275 276 276 276 277 277 275 275 274 274 273 272 273 272
290 290 290 289 289 288 287 287 284 283 280 279 279 279 278 278 278 278 277 277 277 276 276 276 275 273 272 271 270 270 270 270 269 268 268 267 267 267 267 267 267 268 268 268 268 268 268 269 273 275 275 276 277 276 274 274 273 272 272 272 272 272
288 288 287 288 288 287 285 281 281 280 279 279 278 278 277 278 278 278 278 278 277 276 276 276 275 273 272 271 270 270 271 270 269 268 268 267 266 267 267 268 267 268 268 268 268 268 267 267 271 274 275 275 276 276 273 273 272 271 271 271 272 272
286 286 285 284 285 282 279 279 279 280 279 278 277 278 277 277 278 278 278 278 277 276 276 275 275 274 272 271 271 271 270 269 268 268 267 268 268 267 268 268 267 267 267 268 267 270 268 267 270 274 274 275 276 275 274 273 271 271 271 271 271 272
285 287 288 286 283 277 278 278 278 279 279 277 276 277 277 278 279 279 278 277 276 276 275 275 274 274 272 272 271 270 270 269 267 267 267 268 268 267 267 267 267 266 266 267 267 268 268 267 267 270 274 275 276 276 273 272 271 270 270 271 271 271
285 286 287 287 282 278 278 277 278 278 277 276 276 277 278 278 277 277 277 277 276 275 275 275 274 273 272 272 271 270 268 268 267 267 267 267 267 267 266 266 266 266 266 266 267 267 268 268 267 269 274 275 276 276 275 272 271 271 271 271 271 272
287 287 288 286 280 278 278 280 280 278 276 276 276 278 276 276 276 276 275 275 275 274 274 273 273 273 272 271 270 268 267 267 267 267 267 267 266 266 265 266 265 265 266 266 266 266 266 269 270 268 273 275 275 276 276 272 272 273 272 271 272 272
288 288 287 286 279 279 280 279 280 279 278 277 279 277 276 275 275 275 274 273 272 272 272 272 271 271 270 269 269 268 267 266 266 266 266 266 266 265 265 265 265 265 265 265 266 266 267 268 270 271 270 274 275 275 275 275 274 275 274 272 270 270
287 288 288 286 279 279 281 280 281 280 279 280 279 276 275 274 274 273 272 272 271 270 270 270 270 270 269 268 268 267 266 265 265 265 265 266 265 265 264 264 264 264 264 265 265 266 267 268 269 272 272 272 274 274 275 275 275 276 273 273 271 271
286 287 287 286 280 279 280 280 281 280 278 279 277 276 274 273 272 271 271 271 270 270 269 269 268 268 268 267 267 267 266 265 264 264 265 265 265 264 264 264 264 264 265 265 266 266 267 268 268 269 271 273 273 274 274 275 275 274 274 271 270 270
288 287 286 286 283 279 279 280 281 281 282 275 275 275 274 272 271 271 270 270 269 269 268 267 267 267 267 267 267 267 266 265 265 264 265 265 264 264 264 264 264 265 265 265 266 266 267 267 267 267 268 271 272 273 274 274 273 273 273 272 271 271
288 288 287 286 285 282 281 281 281 282 281 275 276 274 273 272 272 271 270 269 268 267 267 267 266 265 266 266 266 266 266 265 265 264 264 264 264 264 264 265 265 265 265 265 266 266 266 266 265 266 267 268 268 269 271 271 271 272 272 270 269 269
287 287 287 287 287 285 282 280 281 281 280 276 275 273 272 272 272 271 269 268 267 266 266 266 265 265 265 265 265 265 264 264 265 264 264 264 264 265 265 265 265 265 265 265 265 265 265 265 265 265 266 267 268 268 270 270 269 269 269 267 268 267
286 286 286 287 288 287 285 282 281 281 279 276 274 273 272 272 270 270 268 267 266 265 265 266 265 265 265 265 264 264 264 264 264 264 265 267 267 267 267 266 266 266 267 266 266 265 264 264 264 265 269 268 270 269 270 269 269 269 268 269 270 264
285 285 285 286 287 287 286 284 282 279 278 275 273 272 272 271 269 268 267 266 265 265 264 264 264 264 264 264 264 263 264 266 268 267 266 266 270 272 272 272 267 267 267 266 266 266 265 264 265 271 273 273 273 274 273 272 272 272 270 271 270 264
284 284 285 285 285 286 285 284 282 279 276 275 273 272 272 270 269 268 266 265 265 265 264 264 263 264 264 264 263 263 263 264 267 271 271 270 271 272 273 273 272 273 271 268 266 268 270 270 272 274 274 274 274 273 273 272 272 272 271 270 264 256
282 283 284 285 285 285 285 284 282 279 276 274 272 272 272 270 269 268 266 265 265 264 264 264 263 263 264 264 263 263 263 264 264 267 271 272 273 274 274 274 274 273 272 272 269 269 269 272 274 274 274 273 273 272 272 272 272 271 270 268 266 255
282 282 283 284 285 285 284 283 281 278 275 273 272 271 271 270 270 269 268 266 265 264 264 264 263 263 264 263 263 263 264 265 265 265 266 270 275 275 275 275 274 274 273 273 272 272 271 272 273 274 273 273 272 272 271 271 271 270 269 266 256 251
278 279 280 281 282 283 283 283 282 278 274 272 271 271 271 271 270 270 268 266 265 264 264 264 263 263 264 264 264 264 265 266 266 266 267 268 269 270 273 275 274 274 274 273 273 273 273 273 274 273 273 272 272 271 271 270 268 269 267 262 253 252
273 274 275 276 276 278 280 281 283 280 274 271 270 270 270 270 269 268 267 265 265 264 264 264 263 263 264 264 264 265 266 266 267 267 267 268 267 267 267 268 270 273 274 271 271 273 273 274 273 273 272 272 271 270 269 267 260 256 254 254 252 253
271 271 272 272 273 274 275 278 281 282 274 271 270 270 270 270 269 268 267 265 265 264 264 264 263 263 264 264 264 266 266 267 267 267 267 268 268 267 266 267 268 269 272 273 272 273 274 273 273 272 272 270 270 269 267 256 253 252 251 252 251 251

ECMWFFLT1_sfc_thetae_024.txt.gz
Theta_e
289 288 288 288 287 287 288 288 288 287 287 288 288 288 288 289 289 288 288 288 288 288 288 288 287 287 287 287 286 285 285 284 285 284 284 284 283 283 282 282 281 281 280 280 279 279 278 278 278 278 277 277 276 276 276 276 276 275 275 275 275 275
289 289 288 287 287 287 286 286 286 286 287 287 287 287 287 286 287 287 287 288 288 288 287 287 287 287 286 286 285 285 284 285 284 284 283 283 283 282 282 281 281 280 280 279 279 278 278 278 277 277 277 276 276 276 275 275 275 275 274 274 275 275
290 289 288 287 286 285 285 286 286 287 285 286 286 286 286 286 287 287 287 287 287 287 286 286 286 286 286 285 285 285 284 284 284 284 283 282 282 282 281 281 281 280 280 279 278 278 278 277 277 277 276 276 275 275 275 275 275 274 274 274 274 274
290 289 287 285 285 285 286 286 285 285 286 287 287 286 286 286 286 287 287 287 287 286 287 286 286 285 285 285 284 284 284 284 284 283 282 282 282 282 281 281 281 280 279 279 278 278 277 277 277 276 276 275 275 274 274 274 274 274 273 273 273 273
289 288 287 286 287 287 287 285 285 286 286 286 286 286 287 287 287 287 287 286 286 286 286 286 285 284 284 284 284 284 284 284 283 283 282 282 281 281 281 281 280 280 279 278 278 277 277 277 276 276 276 275 275 274 274 274 274 273 273 273 272 272
285 285 285 286 287 288 288 287 286 286 286 286 287 286 287 287 287 287 286 286 286 286 285 285 285 284 284 284 284 284 284 283 283 282 282 281 281 280 280 280 280 279 278 278 277 277 276 276 275 275 275 275 274 274 274 273 273 273 273 272 272 272
285 287 287 287 287 287 287 287 287 287 287 286 286 287 287 287 287 286 286 285 285 285 284 284 284 284 283 284 284 284 283 283 282 281 281 280 280 280 279 279 279 278 278 277 277 276 275 275 275 275 274 274 274 274 273 273 273 272 272 272 272 273
287 286 287 287 286 286 287 288 288 288 288 287 287 287 287 287 286 286 285 285 285 284 284 284 284 283 283 284 284 284 283 282 281 281 280 280 279 279 279 278 278 278 277 277 276 276 275 275 275 274 274 274 273 273 273 272 272 272 272 271 271 271
287 288 288 288 288 288 288 288 288 287 287 287 287 287 287 286 286 286 285 285 284 284 284 284 284 284 284 284 284 284 283 282 281 280 280 280 279 279 278 278 277 277 277 276 275 275 274 274 274 273 273 273 272 272 272 271 271 271 271 271 270 270
288 288 288 287 288 289 288 288 288 288 287 288 288 287 286 286 285 285 285 285 284 284 284 284 284 284 284 284 283 283 283 282 281 280 280 279 279 278 278 277 277 276 276 275 275 274 274 273 273 273 272 272 272 271 271 271 270 270 270 270 270 270
292 293 293 294 292 291 290 289 289 288 287 287 288 287 286 286 285 285 285 285 284 284 285 285 284 284 283 283 283 283 282 281 281 280 279 279 278 278 277 277 276 275 274 274 274 273 273 273 273 272 272 271 271 271 270 270 270 269 269 270 270 270
293 293 294 295 294 292 290 289 289 289 289 288 287 286 286 285 285 285 285 285 285 285 285 284 283 283 283 282 282 282 281 281 280 279 278 278 277 277 276 275 275 274 274 273 272 272 272 272 272 274 276 275 271 270 270 269 269 270 270 270 270 270
292 292 292 291 291 290 290 291 292 292 290 288 286 285 285 285 285 285 285 285 285 285 284 284 283 283 282 282 282 281 280 280 278 278 277 276 276 275 275 274 274 273 273 273 272 271 271 271 271 277 278 278 277 271 270 270 270 271 271 271 270 270
290 290 290 291 291 291 291 293 294 293 290 288 285 284 284 284 285 285 285 285 285 285 284 284 283 282 282 281 281 280 279 278 277 276 276 275 274 274 273 273 273 273 272 272 271 271 271 270 274 279 279 279 278 275 270 270 270 271 271 271 271 272
288 288 289 291 292 293 294 294 293 292 291 288 286 282 282 283 284 284 284 284 284 284 283 283 282 281 281 280 280 279 278 277 276 276 275 274 274 273 272 273 273 272 272 271 271 270 270 270 276 279 280 280 279 277 273 271 271 271 271 272 273 273
287 288 288 289 290 290 291 291 290 290 290 287 283 281 282 282 282 283 283 283 283 282 282 282 281 281 280 280 279 278 277 276 276 276 275 274 273 272 272 272 272 271 271 270 270 270 270 269 276 280 281 280 280 278 275 272 272 272 273 273 273 274
286 287 287 288 288 289 290 290 290 288 288 286 282 280 280 280 281 281 282 281 281 281 281 281 281 280 280 279 278 276 276 275 275 275 274 273 273 272 272 271 271 270 270 270 270 269 269 269 277 280 281 281 281 280 276 273 273 274 274 274 275 274
285 285 286 287 288 288 288 288 288 286 287 285 283 279 279 280 280 280 280 280 280 280 280 280 280 279 278 277 276 275 275 275 275 274 273 273 272 272 272 271 271 270 269 269 269 269 269 270 277 281 282 282 282 282 276 274 274 274 274 274 275 275
285 285 286 286 287 287 288 286 284 284 284 283 279 277 276 277 278 279 279 279 279 280 280 279 279 278 277 276 275 275 274 274 274 274 273 272 272 271 271 270 270 270 269 269 269 269 269 269 276 281 282 282 282 281 276 275 274 274 273 273 274 274
285 286 286 286 286 287 286 282 281 280 280 279 275 275 275 276 278 278 278 279 279 279 278 279 278 277 276 275 275 274 275 274 274 274 273 272 271 271 270 270 270 270 269 269 269 270 270 270 275 281 282 282 282 280 275 274 273 273 273 272 273 272
285 285 286 286 286 287 286 283 280 280 280 277 274 274 274 276 277 277 277 277 276 275 276 277 277 277 276 275 275 275 274 273 273 273 272 272 272 271 270 270 269 269 269 269 270 272 271 270 275 281 281 281 282 279 275 274 273 272 272 272 271 272
285 285 285 285 286 287 286 284 282 281 280 277 273 273 276 277 277 276 275 275 275 274 275 276 276 276 275 275 274 274 274 274 272 271 271 271 271 270 270 269 269 268 268 269 269 271 271 271 274 278 281 281 281 280 274 273 272 271 271 271 270 270
286 285 285 286 287 287 286 284 282 282 280 276 275 276 278 277 276 276 276 275 275 274 274 274 275 275 275 275 274 274 274 273 272 271 271 270 270 269 269 268 268 268 268 268 269 270 269 270 272 276 280 280 281 280 276 272 272 271 271 270 270 270
285 285 286 286 287 287 287 284 282 282 280 278 278 280 278 276 276 276 276 276 276 276 275 275 275 275 275 274 274 273 272 272 271 271 270 270 269 269 268 268 268 267 267 267 268 268 268 270 273 273 279 280 281 280 278 273 272 272 271 270 270 271
284 285 285 286 287 287 287 285 283 282 281 280 282 281 277 275 275 275 276 276 276 275 275 275 275 275 274 273 273 272 271 270 270 270 270 269 269 268 268 267 267 267 266 266 267 268 268 269 271 275 275 279 280 280 279 276 274 276 272 271 270 271
284 284 285 286 286 287 287 285 284 284 282 282 284 280 276 274 274 275 275 275 275 275 275 274 274 274 273 273 272 272 270 269 269 269 269 269 268 268 267 267 266 266 266 265 266 267 268 269 270 274 276 277 280 280 280 278 277 277 273 272 272 272
282 283 284 285 286 286 286 286 284 284 284 285 284 280 277 275 275 274 275 275 274 274 274 273 273 273 273 272 272 271 270 269 269 268 268 268 268 268 267 266 266 266 265 265 265 266 267 268 269 271 275 278 279 280 280 279 278 278 277 273 272 272
282 282 282 283 284 285 286 286 286 284 285 286 284 280 278 275 274 274 275 274 274 274 273 272 272 272 272 272 272 272 271 269 269 268 268 268 267 267 267 266 266 266 266 265 266 266 266 268 269 270 272 275 277 278 279 278 278 278 277 274 272 273
280 280 280 280 282 283 285 285 286 286 286 286 285 281 278 276 276 276 275 274 274 273 272 272 272 271 271 271 271 271 271 270 269 269 268 268 267 267 267 266 265 266 266 266 266 267 267 267 268 269 271 272 273 274 275 276 276 277 276 272 272 272
278 278 279 279 281 282 283 284 285 286 286 286 285 280 277 276 276 276 275 274 273 272 271 272 270 270 270 270 270 270 270 269 269 269 269 267 267 267 267 266 265 266 266 266 267 267 266 266 267 268 269 270 271 272 273 273 272 272 270 269 269 267
276 277 277 278 279 280 281 282 283 285 285 286 285 279 277 276 275 274 274 273 271 270 270 271 270 270 270 270 270 270 270 269 269 269 270 270 270 269 269 267 266 267 268 268 268 267 266 266 266 267 272 270 273 271 270 270 269 269 269 270 270 264
274 274 275 275 276 277 278 280 281 283 285 285 283 278 276 276 275 274 273 272 271 270 269 269 269 269 269 269 269 269 268 270 272 271 269 269 272 273 274 273 268 269 269 269 269 269 267 266 267 273 275 274 275 275 274 273 273 272 270 272 273 266
272 272 271 272 274 274 275 276 277 279 280 282 281 278 277 276 275 274 273 271 270 269 269 269 268 268 268 268 268 268 267 266 269 273 274 272 272 273 274 275 274 274 274 271 269 270 272 272 273 274 275 275 275 275 275 275 274 274 273 274 268 262
269 269 269 270 271 271 271 272 273 274 275 276 278 278 276 276 275 275 274 272 270 269 268 268 268 267 267 267 267 267 266 266 265 267 273 274 273 274 275 276 275 275 275 275 272 270 270 273 275 276 276 276 276 276 276 275 275 275 275 274 270 259
267 266 267 267 267 267 268 268 269 271 272 274 275 276 276 276 275 275 275 273 270 269 268 267 267 266 266 266 266 265 266 265 265 265 266 270 274 275 276 276 276 276 276 275 274 274 273 274 275 276 277 277 277 277 276 276 276 276 275 273 263 258
264 263 264 264 264 265 265 266 267 269 270 271 272 273 274 275 276 275 275 274 271 269 268 267 267 266 266 266 266 266 265 266 266 266 267 267 268 271 274 276 277 277 276 276 275 275 275 276 277 277 277 277 277 277 276 275 273 275 273 267 258 258
261 261 262 263 263 263 263 264 265 266 268 269 270 271 272 273 274 275 273 271 270 270 268 268 267 266 266 266 265 265 266 266 267 267 267 267 267 268 269 270 273 276 276 273 274 276 277 277 278 278 277 277 277 276 276 275 269 265 260 258 256 256
260 260 261 261 261 261 262 262 264 265 267 268 270 271 272 274 274 274 274 274 271 270 269 268 267 267 266 266 265 266 266 267 267 267 267 268 269 269 269 270 271 272 275 276 276 277 278 278 278 278 277 276 276 276 275 265 262 259 258 256 255 254

ECMWFFLT1_sfc_thetae_030.txt.gz
Theta_e
290 288 288 288 286 285 285 286 285 284 284 285 285 286 287 287 287 287 287 287 288 288 288 288 288 288 288 288 287 286 286 286 286 286 286 285 285 285 285 285 284 284 284 284 283 282 281 281 281 281 280 280 279 279 279 278 278 278 277 277 277 277
288 287 287 287 287 287 286 284 283 282 283 283 284 284 284 284 285 285 286 287 287 287 286 287 288 288 288 288 287 286 286 286 285 285 285 285 285 285 285 285 284 284 284 284 283 282 281 281 281 280 280 280 279 279 279 278 278 278 277 277 277 277
287 287 287 287 287 287 287 287 286 284 283 282 283 284 284 283 284 285 285 285 285 285 286 286 286 286 287 286 287 286 286 285 285 285 286 284 284 285 284 284 284 284 284 283 283 282 282 281 281 280 280 280 279 279 279 278 278 277 277 277 276 276
286 286 286 287 287 287 287 287 287 286 285 284 283 283 282 283 284 284 284 284 284 284 286 286 285 285 285 286 286 286 286 285 285 286 285 285 285 284 285 284 284 284 284 283 283 283 282 281 281 280 280 280 279 279 279 278 278 277 277 276 276 276
285 285 285 285 286 286 287 287 287 287 287 286 285 284 284 284 284 283 284 284 284 285 285 285 285 285 285 285 286 285 286 286 285 286 286 285 284 284 284 284 284 284 283 283 283 282 282 281 281 281 280 280 279 279 278 278 278 277 277 276 276 276
285 285 285 285 285 285 286 287 287 288 288 288 287 286 286 285 285 284 284 284 284 284 284 285 285 285 285 285 286 286 286 286 286 286 286 285 285 284 284 284 284 284 283 283 282 282 282 281 281 281 280 280 279 279 278 278 277 277 277 276 276 276
284 284 284 284 285 285 286 286 287 287 288 288 289 288 288 287 286 285 285 284 284 285 285 285 285 285 286 286 286 286 287 287 287 286 285 285 284 284 283 284 284 283 283 283 282 282 282 281 281 280 280 280 280 279 278 278 277 277 277 276 276 277
283 284 283 284 284 285 285 286 286 287 287 288 288 288 289 289 288 286 286 286 286 286 285 286 286 286 286 286 287 287 287 287 287 286 286 285 284 284 284 284 283 283 283 283 283 282 282 281 281 280 280 279 279 279 278 277 277 277 277 276 276 276
282 283 283 283 283 284 284 284 285 286 287 287 287 288 288 288 288 287 287 286 285 285 285 285 286 286 286 286 287 287 287 287 287 286 286 285 285 284 283 283 283 283 283 283 283 282 282 281 281 280 280 279 279 278 278 277 277 276 276 276 276 276
282 282 282 283 283 284 284 284 284 285 285 286 286 287 287 287 287 286 286 286 286 286 286 286 286 286 286 287 287 287 286 286 286 286 286 285 284 284 284 283 283 283 283 283 282 282 282 281 280 280 279 279 278 278 277 277 277 276 276 276 275 275
281 282 282 282 282 283 283 284 284 284 284 285 285 286 286 286 285 285 285 285 285 285 286 286 286 286 285 286 286 286 286 286 286 286 285 285 284 284 284 284 283 283 282 282 282 282 281 281 280 280 279 278 278 278 278 277 277 276 275 275 275 274
282 282 282 282 282 282 283 283 284 284 284 284 285 285 286 286 285 284 284 284 285 285 285 285 285 285 285 285 285 285 285 285 285 285 285 285 284 284 284 283 283 282 282 282 282 282 281 281 281 281 283 282 279 278 277 277 276 276 275 275 274 274
282 282 282 282 283 283 283 283 283 283 283 284 284 284 285 285 284 284 284 284 284 284 285 284 284 285 284 285 285 285 285 285 285 285 284 284 284 283 283 282 282 282 282 282 282 281 281 281 281 283 285 285 284 279 277 276 276 275 275 274 273 273
282 282 282 283 283 283 283 283 283 283 283 284 284 284 285 284 284 283 283 283 283 284 284 284 283 283 284 284 284 284 284 284 284 284 283 283 283 283 282 282 282 282 282 282 282 281 281 281 283 284 285 285 285 282 278 277 276 275 275 274 273 273
283 283 283 283 283 283 284 284 284 283 284 284 284 285 284 284 283 283 283 283 283 283 283 283 282 282 282 283 283 283 283 282 283 283 282 282 283 282 281 282 282 282 282 282 281 281 281 280 283 285 285 285 285 284 280 277 276 275 275 274 273 273
283 283 283 283 283 284 284 284 284 284 284 285 285 284 284 283 283 283 283 283 283 282 282 282 282 281 282 282 282 282 281 281 282 282 282 282 282 282 282 282 282 282 281 281 281 281 281 280 283 285 285 285 286 285 282 277 276 275 275 274 273 273
282 283 282 282 283 284 284 283 284 284 284 285 285 284 284 284 283 283 283 283 283 282 282 281 281 281 281 281 281 281 281 281 282 282 282 282 282 282 282 282 281 281 281 281 280 280 280 280 283 285 285 286 286 286 283 276 275 274 274 274 273 273
282 282 282 283 283 283 283 283 283 283 283 284 284 284 284 284 283 283 284 283 283 282 282 281 280 280 280 280 280 280 281 281 281 282 282 281 282 282 282 281 281 281 280 280 280 279 279 279 283 284 285 286 286 286 281 276 274 273 273 273 273 272
282 282 282 282 282 282 282 283 283 283 283 283 283 283 283 283 282 283 283 283 283 282 282 281 280 279 279 280 280 280 280 281 281 281 281 280 280 281 280 280 280 280 280 280 279 279 278 277 281 284 285 286 286 285 278 274 273 273 272 272 272 272
281 281 282 281 282 282 282 282 282 282 282 282 282 281 281 281 281 282 283 282 283 282 282 281 280 279 278 278 278 279 280 280 280 280 280 279 279 279 279 279 279 278 278 278 278 278 277 276 279 283 285 285 286 284 276 274 273 272 271 271 272 272
281 281 281 281 281 281 282 281 281 281 280 281 280 280 280 280 281 282 282 282 283 283 282 282 281 280 279 278 279 278 277 277 278 279 277 277 278 278 278 277 277 276 276 276 277 278 277 276 277 283 284 285 286 283 275 274 272 271 271 271 271 272
280 280 280 280 280 281 281 281 280 280 280 279 279 279 279 280 280 281 282 282 282 283 283 283 281 281 280 279 279 278 277 276 275 274 275 274 274 274 274 274 274 274 274 274 275 275 276 275 275 279 284 285 286 284 275 273 272 271 271 271 272 272
279 279 279 279 280 280 279 279 279 278 278 278 278 278 279 280 280 280 280 281 281 282 282 282 282 281 280 280 278 278 277 276 275 275 273 273 272 270 270 271 272 272 272 272 273 273 275 274 274 276 283 285 286 285 278 273 273 273 273 272 272 272
278 278 279 279 279 278 278 278 277 277 277 277 277 278 279 280 279 279 279 279 280 281 281 282 282 282 280 279 278 277 277 277 275 275 274 273 273 272 272 271 271 270 270 270 272 272 273 275 276 274 281 284 285 286 280 275 274 274 273 273 272 273
276 277 277 278 277 277 277 277 276 275 276 275 276 278 279 278 278 277 277 278 278 279 280 281 281 281 281 279 278 277 277 277 275 274 274 273 273 272 272 272 272 271 270 269 270 271 272 273 274 277 277 282 285 286 282 279 277 278 275 273 272 273
274 275 275 275 275 276 276 275 274 274 274 274 276 277 277 276 275 275 275 276 277 277 277 278 279 280 280 280 279 277 276 276 275 274 273 273 273 273 272 272 271 271 270 270 269 270 271 272 272 276 278 279 284 285 284 281 279 280 275 275 274 274
272 273 272 273 273 273 274 274 273 273 272 274 275 274 273 272 272 273 273 274 274 274 275 276 277 278 279 279 278 277 277 276 275 273 273 273 273 273 272 272 272 271 271 271 270 270 271 271 271 272 276 279 281 285 285 282 281 281 279 275 274 274
270 270 270 271 271 271 272 272 272 271 272 273 273 272 271 270 270 270 270 270 271 272 272 273 274 275 277 278 278 277 277 277 276 274 274 273 272 273 273 273 272 271 271 271 271 271 271 271 271 272 274 277 279 282 284 284 281 281 280 277 275 276
269 269 269 269 270 270 269 269 270 271 271 271 270 270 269 268 268 268 267 267 268 269 270 270 271 272 274 275 277 277 276 276 276 275 274 273 272 272 272 273 272 272 271 271 272 271 270 270 271 272 272 274 276 278 281 283 280 281 280 276 275 276
267 267 268 268 269 269 268 268 268 268 268 268 268 267 266 266 266 265 265 265 266 267 267 268 270 271 272 273 275 276 276 276 275 275 274 274 273 273 272 272 272 272 272 272 272 271 269 269 270 271 271 273 275 277 279 281 279 278 277 274 274 274
267 267 266 267 267 267 266 266 266 266 266 266 265 264 263 263 264 264 263 264 264 265 267 268 269 269 271 272 273 275 276 276 276 275 275 276 276 275 274 274 274 274 274 273 273 271 269 269 269 270 274 274 277 277 278 280 278 278 276 275 277 274
265 265 265 265 266 265 264 264 264 264 264 263 263 262 261 261 261 261 261 262 263 264 265 266 267 268 270 270 272 273 274 276 279 278 276 276 278 279 280 279 276 275 275 274 274 273 271 270 271 275 277 277 278 280 281 282 281 280 276 277 279 275
265 264 263 264 264 263 263 262 262 262 262 262 261 261 260 260 260 260 261 262 262 264 265 265 266 266 267 268 269 270 271 272 275 279 281 280 279 279 280 281 281 280 279 275 273 274 277 276 275 276 277 278 279 280 281 282 282 281 279 280 276 272
262 262 262 262 262 261 261 260 260 260 260 260 260 260 259 259 259 259 260 260 261 262 262 263 263 264 264 265 266 267 268 270 271 273 277 280 280 281 280 280 281 281 280 280 277 274 273 276 277 277 277 278 279 280 281 282 282 281 280 280 278 270
261 260 260 260 259 259 259 259 259 259 259 259 259 259 259 259 259 258 259 259 260 260 261 262 262 263 264 264 266 267 269 270 271 271 271 274 278 280 281 280 280 280 281 281 280 279 276 276 277 278 278 278 279 280 281 282 282 281 281 280 273 269
259 258 258 258 258 258 258 257 258 258 258 258 258 258 258 258 258 258 259 259 259 260 260 261 262 263 264 266 267 268 269 270 271 271 272 271 272 273 277 280 281 280 280 280 281 280 279 278 278 278 278 279 279 280 281 281 280 281 281 278 271 269
257 257 257 257 257 257 257 257 257 258 258 258 258 258 258 258 258 258 260 261 262 261 262 263 263 264 265 266 266 267 268 269 270 271 271 271 271 271 271 272 275 278 280 278 279 280 280 279 278 278 279 279 279 280 281 282 278 276 276 275 271 269
256 256 256 256 256 256 256 256 257 258 258 258 258 258 257 258 258 259 259 260 261 261 262 263 263 264 264 264 265 265 267 269 271 271 271 271 271 271 271 272 273 274 277 280 280 280 280 280 279 279 279 279 280 280 281 277 275 275 274 271 269 268

ECMWFFLT1_sfc_thetae_033.txt.gz
Theta_e
285 285 285 286 286 287 287 288 288 288 288 288 288 287 286 286 287 287 288 288 289 289 289 289 290 290 290 290 290 290 289 289 289 289 289 289 289 289 289 288 288 288 287 287 287 287 286 286 285 285 285 284 284 284 284 284 283 282 282 283 282 282
284 285 285 285 285 286 287 287 288 287 288 288 288 289 289 288 287 286 286 287 287 288 288 288 289 289 289 289 289 289 288 289 288 288 288 288 288 288 288 288 288 287 287 287 287 286 286 285 285 285 284 284 283 283 283 283 282 282 282 282 282 281
284 285 285 285 285 286 286 287 287 287 288 288 288 288 288 288 288 288 287 287 286 286 287 287 288 288 288 288 289 289 289 288 288 288 288 288 287 288 287 287 288 288 287 287 287 286 286 285 284 284 284 283 283 283 283 282 281 281 281 281 280 281
284 284 285 285 285 285 285 286 286 286 286 287 287 288 288 288 288 287 287 287 286 286 286 286 286 287 287 287 287 288 288 288 288 288 287 287 288 287 287 287 287 287 287 286 286 286 286 285 285 284 284 283 282 282 282 282 281 281 281 281 280 280
283 283 284 284 284 284 285 285 285 286 286 286 287 287 287 288 287 287 287 287 286 286 286 285 286 286 286 286 286 287 287 288 288 288 287 287 288 288 287 287 287 287 286 286 286 286 285 285 284 284 283 283 282 282 282 282 281 280 280 280 280 279
283 283 283 283 283 284 284 284 285 285 285 286 286 286 287 287 287 287 287 287 286 286 286 286 286 285 285 285 286 286 287 287 288 287 287 288 288 287 287 287 287 286 286 286 285 285 285 284 284 284 283 283 283 282 282 282 281 281 281 280 280 279
282 282 283 283 283 283 283 284 284 284 285 285 285 285 286 287 287 286 286 286 286 286 286 286 286 286 286 286 286 286 287 287 288 288 287 287 287 287 287 286 286 286 286 285 285 285 285 285 284 283 283 283 283 283 282 282 281 281 281 281 280 280
283 282 282 282 282 283 283 283 284 284 284 284 285 285 285 286 286 285 285 285 285 285 285 286 286 286 286 286 286 286 286 287 287 287 287 287 286 287 286 285 285 285 285 286 286 286 285 285 285 284 283 283 283 283 283 282 282 281 281 281 281 280
282 282 282 282 282 282 283 283 283 283 283 284 284 285 285 285 285 285 285 285 284 284 285 285 285 285 285 285 286 286 286 286 286 287 287 287 287 287 286 286 285 285 286 286 286 285 285 285 285 284 284 283 283 283 282 282 282 281 281 281 281 280
282 282 282 282 282 282 282 283 283 283 283 283 284 284 284 285 284 284 284 284 284 284 284 285 285 285 285 285 285 285 286 286 286 286 287 287 287 286 286 286 285 285 285 285 285 285 285 285 285 284 284 284 283 283 282 282 282 281 281 280 280 280
282 282 282 282 282 282 282 283 283 283 283 283 284 284 284 284 283 283 283 283 283 284 284 284 285 285 285 285 285 285 285 285 286 286 286 286 286 286 286 286 286 286 285 285 285 285 285 285 284 284 284 283 283 282 282 282 282 281 280 280 280 280
283 283 283 282 282 282 282 282 282 282 282 283 283 283 284 284 283 283 283 283 283 283 284 284 284 284 284 284 284 284 285 285 285 285 285 285 286 286 286 286 286 285 285 285 285 284 284 284 285 285 286 286 283 282 282 282 281 281 281 280 279 279
283 282 282 282 282 281 282 282 282 282 282 282 282 283 284 284 283 283 283 283 283 283 283 283 283 283 283 283 284 284 284 284 284 284 284 284 285 285 285 285 285 285 285 285 284 284 284 284 284 286 287 287 287 283 282 281 281 281 280 280 279 279
282 282 282 281 281 280 281 282 282 282 282 283 283 284 284 284 284 283 283 283 283 283 283 283 283 282 282 282 282 283 283 283 283 284 284 284 284 284 284 284 284 284 284 284 284 284 284 284 285 287 287 288 287 286 283 282 281 281 280 280 279 279
281 281 281 280 281 281 281 282 282 282 283 283 283 284 283 283 283 283 283 283 283 283 283 282 282 281 281 281 282 282 282 282 283 283 283 283 284 284 283 284 284 284 284 284 284 284 284 284 286 287 288 288 288 287 285 282 282 281 280 280 279 279
281 280 280 281 281 281 281 282 282 282 283 282 283 283 283 283 282 283 283 283 283 283 283 282 282 281 281 281 281 281 281 281 281 282 283 283 283 283 283 283 283 283 283 283 283 283 284 284 285 287 287 288 288 288 286 282 281 281 280 280 279 279
280 280 280 280 281 281 281 281 281 281 281 282 282 282 282 282 281 281 282 282 282 282 282 282 282 281 281 281 281 280 280 280 281 282 282 283 282 282 283 283 283 283 283 283 283 283 283 283 286 286 287 288 288 288 287 283 282 281 280 280 279 279
280 280 280 281 281 280 280 280 280 280 280 280 280 280 280 280 279 280 280 281 281 281 282 282 281 281 280 280 280 280 281 281 281 281 282 282 282 282 282 282 282 282 283 283 283 282 282 283 286 286 287 287 288 288 286 284 282 280 280 279 279 279
281 280 280 280 280 280 280 280 280 279 279 278 278 278 278 278 278 278 279 279 280 280 280 280 280 280 280 280 279 279 280 280 280 281 281 280 281 281 281 281 282 282 282 282 282 282 282 282 284 286 286 287 288 287 285 284 282 281 279 279 279 278
280 279 279 279 280 280 280 279 278 277 277 277 277 277 277 277 277 278 278 278 278 279 279 280 280 280 280 280 279 280 281 281 281 281 281 280 279 280 280 281 281 281 281 281 281 281 281 282 283 285 286 286 287 287 285 284 282 280 279 278 278 277
279 279 279 278 278 279 279 277 276 276 277 277 277 276 276 276 276 277 277 278 278 277 277 278 278 279 279 279 280 280 279 279 280 280 279 279 279 279 280 280 279 279 280 280 280 281 281 281 282 284 285 286 286 286 285 283 282 280 278 277 276 276
278 277 278 278 278 279 277 277 277 276 277 277 276 275 275 276 276 277 277 277 276 276 275 276 276 277 278 279 279 279 279 279 279 279 279 279 279 278 279 278 278 278 278 279 279 279 279 280 281 281 284 285 286 287 285 283 281 279 278 277 276 274
277 277 277 278 278 277 277 276 275 276 276 276 275 275 275 276 276 276 275 275 274 273 273 274 275 275 276 277 277 277 278 279 279 279 278 278 278 277 277 277 277 277 277 278 278 277 278 278 279 279 282 284 285 286 286 283 280 279 278 276 275 275
275 275 275 276 276 276 275 274 274 275 275 274 274 274 275 275 275 274 273 272 272 272 272 272 273 274 274 274 275 275 276 277 278 278 278 278 277 276 276 276 276 276 276 277 276 276 276 277 279 278 280 282 284 285 287 284 281 280 278 276 275 275
274 275 275 276 275 275 275 272 272 273 273 273 273 274 273 274 272 271 271 270 270 270 271 271 271 272 272 272 273 273 273 274 275 276 277 277 276 276 275 275 276 275 275 275 276 275 275 275 276 279 278 280 282 284 286 286 283 282 278 276 275 274
273 273 274 274 274 274 273 271 271 272 271 272 274 273 272 270 270 269 269 269 269 269 269 269 270 270 270 270 271 271 271 271 273 275 276 276 276 276 275 276 275 275 274 274 275 275 275 275 275 277 279 279 281 283 285 286 286 283 279 277 276 276
271 272 272 272 272 272 272 271 270 270 270 271 272 270 269 268 268 267 267 267 267 267 267 267 267 267 268 268 269 269 270 270 272 273 274 275 275 275 275 275 275 275 275 275 274 275 275 274 274 274 276 279 280 281 283 285 286 284 282 277 276 277
269 269 269 270 270 270 270 270 269 268 269 271 270 269 267 266 265 265 265 265 265 265 266 265 265 266 266 267 268 268 269 269 270 271 273 274 275 275 275 275 275 275 275 274 275 275 275 274 274 274 274 276 278 280 281 283 285 284 283 280 277 278
267 267 267 267 268 269 269 268 269 269 269 268 268 267 265 264 264 264 264 264 264 264 264 264 264 264 265 265 266 267 268 269 270 271 272 273 274 274 274 275 275 275 275 274 274 275 275 274 274 273 273 274 275 277 278 279 281 284 283 280 278 278
266 265 265 266 267 267 267 267 267 267 267 266 266 264 263 262 263 262 262 262 262 262 262 262 264 264 263 264 265 266 267 268 269 270 271 272 273 273 274 274 274 274 275 275 275 275 274 274 274 273 273 273 274 275 277 278 279 281 281 279 277 277
264 264 264 264 265 265 265 264 264 265 264 264 263 261 261 261 261 261 260 261 261 261 262 262 262 262 262 263 264 265 266 267 268 269 270 272 274 274 274 274 275 275 276 276 275 275 274 274 274 274 276 274 276 275 275 276 277 280 281 280 279 276
262 261 261 261 262 261 261 261 261 262 262 261 261 260 259 259 259 259 259 259 260 260 260 260 261 261 262 263 263 264 265 269 272 271 270 270 274 277 278 279 276 276 276 276 276 277 275 275 276 278 279 279 279 279 279 279 280 281 281 281 281 277
258 258 258 258 259 258 258 258 258 259 259 259 259 259 258 258 258 258 258 258 258 259 259 260 260 260 261 261 261 262 262 262 264 270 272 273 273 274 276 277 279 280 281 279 277 278 281 281 281 280 279 280 280 280 280 280 281 282 282 282 278 275
256 256 256 257 257 256 256 256 257 257 257 258 258 258 257 257 257 257 257 257 258 258 259 259 259 259 259 260 260 261 261 261 261 262 268 271 272 273 274 276 277 279 280 281 281 280 278 280 281 281 280 280 280 280 281 281 281 282 283 282 281 274
256 256 256 256 255 256 256 256 256 257 257 258 258 257 257 257 257 256 257 257 257 258 258 258 259 259 259 259 259 260 261 260 261 260 261 265 271 273 274 276 277 278 279 280 281 282 282 281 280 281 281 280 280 281 281 281 282 282 283 282 277 273
255 255 255 255 255 255 256 256 256 257 257 257 257 257 256 256 256 256 256 257 257 257 257 258 258 259 259 260 260 260 261 261 262 262 263 263 265 268 272 275 276 277 278 279 281 281 282 282 282 281 281 281 280 281 281 281 280 282 283 281 276 274
255 255 255 256 256 256 255 255 256 257 257 257 257 257 256 256 256 256 257 258 258 258 258 259 259 259 260 260 260 260 261 261 262 263 264 265 265 266 268 269 271 275 277 276 277 279 281 282 282 282 281 281 281 281 281 281 278 277 278 279 276 274
255 255 255 255 255 255 255 255 256 257 256 257 257 256 256 256 256 256 257 257 258 258 258 259 259 259 259 259 259 260 260 261 261 261 262 262 263 263 264 267 270 273 275 277 277 278 280 281 282 282 281 280 281 281 281 277 276 276 277 277 275 274

ECMWFFLT1_sfc_thetae_036.txt.gz
Theta_e
286 287 287 288 288 288 288 289 290 290 290 291 291 290 291 291 292 292 292 292 293 293 293 293 293 294 295 295 296 296 296 296 296 296 296 297 297 296 296 296 295 295 294 294 294 294 293 293 293 292 292 291 290 290 290 290 290 290 289 289 289 289
285 286 286 287 287 288 288 289 289 288 289 289 290 290 291 291 291 291 290 291 292 292 292 292 292 293 293 293 294 294 295 295 296 296 295 296 296 295 295 295 294 294 294 294 293 293 293 292 292 292 291 291 290 290 289 289 289 289 288 288 289 289
285 285 286 287 287 288 288 288 288 288 289 288 289 289 289 289 290 290 290 291 291 290 290 290 290 291 292 292 292 292 293 294 294 294 295 295 294 295 294 294 294 294 294 293 293 293 292 292 291 291 291 290 289 289 289 289 288 288 288 288 288 288
285 285 286 287 287 287 287 288 288 288 288 288 288 288 289 288 289 289 289 289 290 290 289 289 289 289 290 290 291 291 291 292 292 293 294 293 294 294 294 293 294 294 294 293 293 292 292 292 292 291 290 290 289 288 289 288 288 287 287 287 286 287
286 286 286 286 287 287 288 288 288 288 288 288 288 288 288 289 289 289 289 289 289 289 289 289 289 289 289 289 290 289 290 290 291 292 292 292 293 293 293 293 293 293 293 293 292 292 292 292 291 291 290 289 289 288 288 288 287 287 286 286 286 286
287 287 286 286 286 287 287 288 288 288 288 288 288 288 288 288 289 289 289 289 288 289 288 288 288 288 288 288 289 288 289 290 290 291 291 291 292 292 293 293 292 292 292 291 291 291 291 291 291 291 290 289 289 288 288 287 287 287 286 286 286 286
286 286 286 286 286 286 287 287 287 287 288 287 287 287 288 288 288 288 288 289 288 288 288 287 287 287 287 287 288 288 288 289 289 290 289 290 290 290 291 292 292 291 291 291 291 291 291 291 291 290 290 289 289 288 288 288 287 287 286 286 286 285
286 286 286 286 286 286 286 287 287 287 287 287 288 287 288 288 288 288 288 288 288 287 287 287 287 287 287 287 287 287 287 287 288 289 289 289 289 289 289 290 290 291 290 290 290 290 290 291 290 290 289 289 289 288 287 287 286 286 286 285 285 285
285 285 286 286 285 285 286 286 286 286 286 286 287 287 287 288 288 287 287 287 287 287 286 286 286 286 286 286 287 287 287 287 287 287 287 288 288 288 288 288 289 289 289 288 289 289 289 288 288 288 288 288 288 287 286 286 285 285 285 285 285 285
285 285 286 286 286 286 286 286 286 286 286 286 286 287 287 288 287 287 286 286 286 286 286 286 286 286 286 286 286 287 287 287 287 287 287 287 287 287 288 288 288 289 288 288 288 288 288 288 288 288 288 288 287 287 286 286 285 285 284 284 284 284
285 285 285 286 286 285 285 286 286 286 286 286 286 286 286 287 286 286 286 286 285 286 286 286 286 286 286 286 286 286 286 286 286 286 287 287 287 288 287 288 288 288 288 289 289 289 289 289 288 289 288 288 287 288 287 286 285 285 285 284 284 284
286 286 286 285 285 285 285 285 286 286 286 286 286 286 286 286 285 286 285 285 285 286 286 286 286 286 286 285 285 285 285 286 286 286 286 286 286 287 287 287 287 287 287 287 288 288 288 288 289 288 288 288 287 287 287 287 286 286 285 285 284 284
286 286 286 285 285 285 285 286 286 286 286 286 286 286 286 286 285 285 285 285 285 286 286 286 285 285 285 285 285 285 285 285 285 285 285 285 285 285 286 286 286 286 287 287 287 287 288 288 288 288 289 290 290 288 287 286 286 286 285 285 284 284
286 286 286 286 286 286 285 286 286 286 285 286 286 286 286 285 285 285 285 285 285 285 285 285 285 285 284 285 284 284 284 285 284 284 285 285 285 285 286 285 285 286 286 286 286 286 287 287 287 289 289 290 290 289 287 286 286 285 286 285 285 284
286 286 286 287 287 286 286 286 285 285 286 285 286 286 285 285 285 285 284 285 284 284 285 285 284 284 284 284 284 284 284 284 284 284 284 284 285 285 285 285 285 285 286 286 285 285 286 286 288 289 289 290 290 290 289 287 286 285 285 285 285 284
286 286 287 287 287 287 287 286 285 286 286 286 286 285 285 285 284 284 284 284 284 284 284 284 284 283 283 283 283 283 283 283 283 284 284 284 285 284 284 285 285 285 285 285 285 285 285 286 287 288 288 289 289 289 289 287 286 285 285 285 285 284
285 286 286 287 287 287 286 286 286 286 285 285 285 285 284 284 284 283 283 283 283 283 283 283 283 282 282 282 282 282 282 282 283 283 283 283 283 283 283 283 284 284 285 285 285 285 285 286 287 287 287 288 288 289 289 287 287 286 285 285 285 285
285 286 286 287 287 286 286 285 285 284 284 285 284 284 284 283 283 282 283 282 282 282 282 282 282 282 281 281 280 280 280 281 281 282 283 283 283 283 283 284 284 284 284 285 285 284 284 286 287 287 287 287 288 288 287 287 287 286 286 285 285 285
286 287 287 287 287 286 285 285 284 283 283 283 283 283 283 282 282 282 282 281 282 282 282 282 281 281 280 280 279 279 279 279 280 281 282 281 281 282 282 282 282 283 283 283 283 283 284 285 286 287 287 287 287 287 286 286 286 286 286 285 285 285
287 287 286 285 285 285 284 283 283 282 281 281 282 281 281 281 281 281 281 281 281 281 281 281 281 280 279 279 278 277 278 278 279 279 280 279 280 280 281 281 281 282 283 282 282 283 283 283 284 285 286 287 287 286 286 286 286 285 285 285 285 285
284 283 283 282 281 282 282 281 281 280 280 280 280 280 280 280 280 280 280 280 281 281 281 280 280 279 278 277 277 277 277 277 277 278 278 278 279 280 281 281 281 281 281 282 282 282 282 282 283 284 285 286 286 286 285 285 285 284 285 285 284 284
280 280 280 279 279 280 280 280 279 278 278 278 279 278 278 279 279 280 280 280 280 279 279 279 278 277 276 276 276 276 276 276 276 276 276 277 277 278 279 279 280 279 280 281 281 281 282 282 282 283 284 285 285 286 285 285 284 283 284 285 284 283
279 278 278 278 279 279 279 278 277 276 277 277 276 276 277 278 279 278 278 278 278 278 278 277 276 275 275 275 274 274 274 275 274 274 274 274 274 275 276 276 277 277 278 279 281 281 281 281 281 282 283 284 285 285 285 284 284 284 284 284 284 283
277 277 277 278 278 277 277 276 275 274 274 274 273 274 276 276 276 276 275 275 275 275 275 274 274 274 273 273 273 272 272 273 273 273 272 273 273 272 273 273 275 276 277 279 280 280 280 281 282 281 282 283 283 284 285 284 284 285 284 283 283 283
275 275 275 275 275 275 274 273 272 272 272 271 272 273 273 273 273 273 273 273 272 272 272 272 272 272 272 271 271 271 270 271 271 271 271 271 271 271 271 273 274 275 276 278 279 280 280 281 281 282 281 282 283 283 284 285 285 286 285 284 283 283
273 272 272 272 272 272 272 271 269 269 269 269 271 271 271 271 271 271 269 269 269 270 270 270 270 270 270 270 270 269 268 268 269 269 269 269 270 270 270 272 273 274 275 276 277 278 280 281 281 281 281 281 282 283 283 284 285 285 284 284 283 283
269 269 269 270 269 269 269 268 267 267 266 267 268 268 267 267 266 265 265 265 266 266 267 267 268 268 268 268 268 267 267 267 267 267 268 268 268 269 269 270 272 273 274 276 276 277 279 280 281 281 281 281 281 282 283 283 284 285 285 284 284 284
267 267 266 266 267 266 266 265 264 262 263 264 264 264 264 263 262 262 262 262 263 263 264 264 264 265 266 266 266 266 266 266 266 266 266 267 267 268 268 269 271 272 273 274 276 277 277 279 280 280 280 280 280 280 281 282 283 283 284 284 284 284
264 263 263 262 263 263 263 262 262 261 262 261 261 261 261 260 260 259 260 260 261 261 262 262 262 263 263 264 264 265 265 265 265 265 266 266 266 267 268 269 270 271 272 273 275 276 277 277 278 279 279 279 279 278 279 279 280 282 283 282 282 283
261 260 260 260 261 261 260 260 260 260 260 260 260 260 259 259 258 258 258 258 259 259 260 260 261 261 262 262 263 263 263 264 265 264 264 265 266 266 267 268 269 270 271 272 274 275 276 276 277 278 278 279 279 278 278 278 278 279 279 280 281 282
259 259 258 258 260 260 259 259 259 260 260 260 260 259 258 258 258 258 258 258 258 258 259 260 260 260 260 261 261 262 263 263 263 263 264 265 267 267 266 267 268 269 270 271 271 272 273 274 275 277 280 279 280 278 277 277 277 278 278 280 282 281
258 258 258 258 259 259 259 258 259 259 259 259 259 259 258 257 257 257 257 258 258 258 259 259 259 259 260 260 260 260 261 264 267 266 264 264 268 270 272 272 269 270 271 271 272 274 273 274 276 279 280 281 281 281 281 280 280 280 279 280 282 281
258 258 257 258 258 258 258 258 258 258 259 259 259 258 258 257 257 257 257 257 257 258 258 258 258 259 259 259 259 259 259 260 261 266 268 269 269 269 271 272 273 273 274 271 269 272 276 277 278 279 279 280 281 282 282 282 281 281 281 281 280 279
257 257 257 258 258 257 257 257 257 258 258 258 258 258 257 257 257 256 256 257 257 258 258 258 258 258 258 258 259 259 259 259 259 260 265 267 268 269 270 271 272 273 273 274 274 272 272 275 277 278 278 279 280 281 282 282 282 282 282 282 282 278
257 257 257 257 257 257 257 257 257 258 258 258 257 257 256 256 256 256 256 256 257 257 258 258 258 258 258 258 258 258 259 258 258 258 259 262 266 268 269 270 271 272 273 274 275 276 276 276 276 277 278 279 280 281 282 282 283 283 283 282 280 278
257 257 257 257 257 256 256 256 257 257 257 257 257 256 256 256 256 256 256 256 256 256 257 257 257 258 258 258 259 259 259 259 259 259 259 259 260 261 264 268 269 271 272 273 275 275 276 277 277 278 279 279 280 281 281 282 281 282 283 282 279 278
256 256 256 256 256 256 256 256 256 257 257 256 256 256 255 255 255 256 256 256 257 257 257 257 257 258 258 258 258 259 259 259 259 260 259 258 258 259 259 261 263 267 270 267 269 271 273 275 277 278 278 279 280 281 282 283 280 278 278 279 279 279
256 256 256 256 256 256 255 255 256 257 256 256 256 255 255 255 255 255 256 256 256 256 257 257 257 258 257 257 258 258 259 259 259 258 259 259 260 260 260 261 262 263 267 270 271 272 273 274 274 275 277 278 279 280 282 278 277 277 277 277 278 278

ECMWFFLT1_sfc_thetae_042.txt.gz
Theta_e
283 283 284 284 284 285 285 285 286 286 285 285 285 285 286 287 287 287 287 287 287 287 286 286 287 287 288 288 287 287 287 288 288 288 288 289 289 289 289 289 288 289 289 288 288 288 288 287 288 288 288 287 288 287 288 287 286 287 286 287 287 287
283 282 282 282 283 284 285 284 285 284 286 285 285 285 286 286 287 287 286 286 285 285 285 285 286 286 286 287 286 286 286 287 287 288 287 288 288 288 288 287 287 287 287 287 288 287 287 287 287 287 288 288 288 288 288 287 286 286 286 286 286 287
283 283 283 284 284 284 284 285 285 285 285 285 285 285 285 285 285 285 286 286 285 284 283 284 284 285 286 285 286 285 285 285 286 286 286 286 286 286 286 286 286 287 287 287 287 287 287 286 287 287 287 287 287 287 287 286 286 286 286 286 286 286
284 284 284 284 284 285 284 284 285 285 285 284 284 284 284 284 284 284 285 285 286 284 284 283 283 283 283 283 283 284 284 284 285 285 285 285 285 284 285 285 285 286 286 286 286 286 286 286 286 286 286 287 287 286 287 287 286 286 286 285 285 286
283 283 283 284 284 285 284 284 284 284 284 284 284 284 283 284 284 284 284 284 284 284 284 284 283 282 282 282 282 283 283 283 284 285 284 285 285 285 284 284 285 285 286 286 286 286 286 286 286 286 285 286 286 286 286 287 286 286 286 285 285 285
283 283 284 285 285 285 284 284 284 284 284 283 283 283 283 283 284 284 283 283 283 283 283 283 283 283 282 281 281 281 282 283 283 284 284 284 284 284 285 285 285 285 285 285 286 285 285 285 285 286 286 286 286 286 286 286 286 286 286 286 286 285
283 283 284 284 283 283 283 283 283 282 283 283 283 283 283 284 283 284 283 283 282 282 282 282 282 281 281 281 281 281 281 282 282 283 283 283 283 284 284 284 284 284 285 285 285 285 285 285 285 285 285 285 285 285 286 286 285 285 285 285 286 286
283 283 283 283 283 283 283 282 282 282 282 281 282 282 282 282 283 282 282 282 282 282 282 282 282 282 281 281 281 281 281 282 281 281 282 282 282 282 283 283 283 283 284 284 284 284 285 285 285 285 284 284 284 284 285 285 285 286 285 285 285 285
282 282 283 283 282 282 282 282 282 281 281 281 281 282 282 281 282 281 281 280 280 280 280 280 280 281 281 281 281 281 281 281 281 281 281 281 281 282 282 282 282 283 283 283 283 284 284 285 285 285 285 285 285 285 284 284 285 285 285 285 285 284
281 281 280 281 281 281 281 281 281 281 281 281 281 281 281 282 281 281 280 280 279 279 280 280 280 281 281 281 281 280 280 281 280 281 281 281 281 281 281 281 282 282 282 283 283 283 283 283 284 284 285 285 285 284 284 284 284 284 284 285 285 285
279 280 280 280 280 280 280 280 279 280 279 280 280 280 280 280 281 280 279 279 279 279 279 280 279 280 280 280 280 280 281 281 281 281 281 280 280 281 281 281 281 281 281 281 282 282 283 283 284 284 284 284 284 284 284 284 284 284 284 284 284 285
280 280 280 280 280 280 280 280 280 280 280 280 280 280 280 280 280 280 279 279 279 279 279 279 279 280 280 280 280 280 280 280 281 281 281 281 281 281 281 281 281 280 280 280 280 281 282 282 283 285 287 288 286 285 285 285 284 284 284 284 284 284
280 280 279 279 279 280 281 281 281 280 279 279 279 279 280 280 279 279 278 279 279 279 279 280 280 280 279 280 279 279 280 280 280 280 280 280 280 280 280 280 280 280 280 280 280 280 281 281 282 285 288 289 289 286 284 283 283 283 283 283 283 283
280 280 280 279 280 280 280 280 281 280 280 280 280 280 280 280 279 279 279 279 279 279 280 280 280 280 280 280 280 280 280 280 279 279 279 279 279 279 279 279 279 280 280 280 280 280 281 281 284 286 287 288 288 288 285 283 283 283 282 283 283 283
278 279 280 280 281 281 281 281 281 281 280 280 279 280 279 279 279 279 280 280 279 280 280 280 280 280 280 280 280 280 280 280 280 279 279 279 279 279 278 278 279 279 279 280 280 280 280 280 284 286 287 287 287 287 287 284 283 282 282 282 282 283
279 279 280 280 280 280 280 280 280 279 279 279 278 278 278 278 278 279 279 279 279 279 279 280 279 279 280 280 280 280 280 279 279 279 279 279 279 278 278 278 278 278 278 278 279 279 280 280 283 285 286 286 286 287 286 284 283 282 282 282 282 283
278 279 279 279 279 279 279 279 278 278 278 278 277 277 277 277 277 277 277 277 278 278 278 278 278 278 278 278 279 279 279 279 278 278 279 279 278 278 278 278 277 277 278 278 278 278 278 279 283 284 285 286 286 286 286 284 283 283 283 283 282 282
278 277 278 279 278 277 277 276 276 276 276 276 275 275 275 275 275 275 275 275 276 276 276 276 275 275 275 275 276 275 275 276 276 276 277 277 277 278 278 277 277 277 276 277 277 277 277 278 282 283 284 284 285 286 284 283 282 282 282 282 282 282
277 277 277 276 275 275 274 275 274 274 274 273 274 273 272 272 272 272 273 273 273 274 273 273 272 272 272 273 273 272 273 273 273 274 275 274 274 275 275 275 275 276 276 276 276 276 276 277 280 282 283 283 284 284 282 281 281 281 281 281 281 282
276 276 275 274 274 273 273 272 272 272 271 271 271 270 270 270 270 271 271 271 271 271 271 270 270 270 270 270 270 270 270 271 270 271 272 271 271 271 272 273 273 274 275 275 275 275 275 275 278 281 281 282 283 283 281 280 280 279 280 279 280 281
275 274 274 273 272 271 271 271 270 269 268 268 268 268 267 268 269 269 269 269 269 268 268 268 267 267 267 267 266 266 266 266 266 268 268 268 269 270 271 272 272 272 273 273 274 276 275 275 277 280 280 281 282 280 278 278 278 278 278 279 279 280
273 272 272 271 270 270 269 269 268 267 267 266 267 266 266 267 267 267 267 266 266 266 265 265 265 264 264 263 263 264 264 265 265 265 266 266 267 267 268 269 270 269 270 271 272 272 273 273 273 275 279 279 280 281 278 277 276 276 277 278 278 278
272 271 270 270 269 268 268 267 265 264 265 265 264 264 265 265 265 265 264 264 264 263 263 262 262 262 262 262 262 263 263 263 263 263 263 264 265 265 265 266 266 266 267 268 269 270 271 271 272 273 277 278 279 280 279 275 275 275 276 276 277 277
270 269 269 268 267 267 266 265 263 263 263 263 262 263 264 264 263 263 262 262 261 261 261 261 261 261 261 261 261 260 260 261 262 262 262 262 262 262 262 262 264 264 265 266 267 268 268 270 273 271 274 276 277 278 279 275 274 275 274 274 275 276
268 267 267 266 265 265 265 262 261 261 261 261 262 263 263 262 262 262 261 260 260 260 260 260 260 260 260 260 260 260 259 260 260 260 261 260 260 260 260 261 262 263 263 264 265 266 267 268 269 273 271 274 276 277 277 278 277 279 277 275 275 276
266 265 265 264 264 263 263 261 260 260 260 260 262 262 262 261 261 260 259 259 259 259 259 259 259 259 259 259 259 259 258 258 259 259 260 260 260 260 260 260 261 262 262 262 263 265 266 267 268 270 272 271 274 275 276 277 278 278 276 276 276 277
263 263 262 263 262 262 261 260 259 259 258 260 261 261 260 260 259 259 258 258 258 258 258 258 258 258 258 258 258 258 258 258 258 258 259 259 259 259 259 259 260 260 261 261 262 263 264 266 267 267 269 272 272 274 274 275 276 277 278 275 276 278
261 261 260 261 261 260 260 259 258 257 259 261 260 260 260 259 258 258 257 257 257 257 258 257 257 258 258 258 258 258 258 258 258 258 258 259 259 259 258 258 259 259 260 260 261 262 263 264 265 266 267 268 269 270 272 273 275 275 276 277 275 278
260 259 259 258 260 259 259 258 259 259 260 259 260 260 259 258 258 257 257 257 257 257 257 256 257 257 257 257 258 258 258 258 258 258 258 258 258 258 258 258 259 259 259 259 259 260 261 261 262 263 264 265 265 265 267 268 269 273 275 274 274 276
258 258 258 258 259 259 259 258 258 259 259 259 259 258 258 257 257 257 257 257 257 257 257 256 257 257 256 257 257 257 257 258 258 258 257 257 257 257 257 257 258 258 258 258 259 259 259 260 260 261 262 263 264 264 266 267 268 269 271 272 273 274
257 257 257 258 258 258 258 258 258 258 259 259 259 258 257 257 257 257 256 256 256 256 257 256 256 256 256 256 256 257 257 257 257 257 258 259 259 259 258 258 259 260 260 260 260 260 260 260 261 262 267 266 269 267 267 267 268 269 269 272 275 273
256 256 257 257 258 258 257 257 258 258 259 258 258 258 257 257 256 256 256 256 256 256 256 256 256 256 256 255 255 256 256 260 263 263 261 260 265 268 269 269 264 264 264 264 264 265 263 263 264 269 272 272 273 273 274 274 274 275 273 274 276 275
257 257 256 257 257 257 257 257 257 257 258 258 258 258 257 256 256 256 256 256 256 256 256 256 256 256 256 256 256 256 256 256 258 264 266 266 266 267 269 269 270 270 271 267 265 267 271 272 272 272 272 273 273 273 273 274 274 274 275 275 272 271
256 256 256 257 257 256 256 256 257 257 257 258 257 257 257 256 256 255 256 256 256 256 256 256 256 256 255 255 256 256 255 255 255 256 262 266 266 267 268 268 269 269 270 270 269 267 265 268 270 271 271 272 272 272 273 273 274 274 275 275 276 271
256 256 256 256 256 256 256 256 257 257 257 257 257 257 256 256 256 256 256 256 256 256 256 256 256 256 255 255 255 255 255 255 255 255 255 259 264 266 267 267 268 269 269 269 270 270 269 269 270 271 271 272 272 272 273 273 274 275 275 276 272 270
256 255 255 255 255 256 256 256 257 257 257 257 257 257 256 256 256 256 256 256 256 256 256 256 256 256 256 256 256 256 256 256 256 256 256 256 256 258 262 265 266 267 268 268 269 269 269 270 270 271 271 272 272 273 273 273 271 274 276 274 271 270
255 255 256 256 257 256 256 256 257 257 257 257 256 256 256 256 256 256 256 257 257 256 256 256 256 256 256 256 256 256 256 256 257 257 256 256 256 256 256 257 259 263 266 264 265 268 269 270 270 271 271 272 272 273 273 274 270 269 269 270 270 270
255 255 256 256 256 256 255 255 256 257 257 256 256 256 255 255 255 255 256 256 257 257 256 256 256 256 256 256 256 257 257 257 257 257 257 257 257 257 257 257 258 259 263 267 268 269 269 269 270 270 271 271 272 273 273 268 268 268 269 270 270 270

ECMWFFLT1_sfc_thetae_045.txt.gz
Theta_e
281 281 281 281 281 283 283 283 283 283 283 284 283 284 284 284 284 284 285 285 285 285 285 285 285 285 285 285 285 285 285 285 286 286 286 286 286 285 285 285 285 285 285 285 286 286 286 286 286 286 287 286 287 287 287 286 285 285 286 286 286 286
283 283 283 283 283 283 285 285 285 284 285 284 284 284 284 284 285 285 286 286 286 285 284 284 285 284 284 284 284 284 284 284 285 285 285 285 285 284 284 283 284 285 285 285 285 285 285 286 286 286 286 286 286 286 286 287 285 285 285 286 286 286
284 284 284 284 283 283 284 284 284 285 284 284 284 284 284 284 284 284 284 285 285 284 283 283 283 283 284 283 283 283 283 283 284 284 284 283 283 284 283 283 284 284 284 284 285 285 285 285 286 286 286 285 285 285 285 285 285 285 285 285 285 285
284 283 283 283 284 284 283 283 284 284 284 283 283 283 283 284 284 283 283 282 283 282 283 283 282 282 282 281 280 281 282 282 282 283 283 282 283 283 283 282 283 284 284 284 284 284 284 284 285 285 285 285 286 286 287 286 285 285 285 285 284 285
284 283 282 282 282 282 283 282 282 282 282 282 281 282 281 282 282 282 282 282 283 282 281 281 282 282 282 281 281 281 281 280 281 282 282 283 282 282 281 281 282 282 283 283 283 283 283 284 283 284 284 284 285 285 285 286 286 286 286 285 285 285
282 282 282 283 282 282 281 281 281 281 280 280 280 281 280 280 280 281 281 281 281 280 280 281 281 281 281 281 281 281 281 281 282 282 282 283 282 281 281 280 281 281 282 282 282 282 282 282 283 283 283 284 284 284 284 285 285 285 285 286 286 286
281 281 280 280 281 281 281 282 282 281 281 280 280 280 280 280 280 281 281 280 279 279 279 279 279 280 280 280 281 281 282 282 282 282 282 282 282 282 281 281 281 281 281 282 282 282 282 282 282 282 283 283 284 283 284 284 284 284 285 285 285 286
279 279 280 279 279 279 280 280 280 280 280 280 280 280 280 280 279 280 280 279 279 279 279 279 279 280 279 280 280 281 281 282 282 282 282 282 282 282 282 281 281 281 281 281 281 282 282 282 282 282 282 282 283 283 283 283 283 284 284 284 285 284
279 279 278 279 279 279 279 279 279 279 279 280 280 280 280 280 279 279 278 278 278 278 278 278 278 279 279 279 280 280 280 281 281 281 281 281 281 281 281 282 281 281 281 281 281 281 281 281 281 282 282 282 282 282 282 282 283 283 284 284 284 284
278 278 279 279 280 279 279 279 279 279 279 279 279 279 279 280 279 279 278 278 278 277 278 277 278 278 278 279 279 279 279 279 279 280 281 281 281 280 280 280 281 281 281 281 281 282 282 281 281 281 281 282 282 282 281 281 282 282 283 283 283 283
278 278 278 278 278 277 277 278 278 279 279 279 279 279 279 279 279 278 278 278 278 278 278 279 279 279 279 278 278 278 278 278 278 278 278 278 279 280 280 280 279 279 280 280 280 281 281 281 281 282 281 281 281 282 281 281 282 282 282 282 282 283
277 277 277 278 278 278 278 278 279 279 278 278 278 278 278 278 278 278 278 278 278 278 278 279 279 279 279 279 279 279 279 279 279 278 278 278 279 278 278 278 278 278 278 278 279 279 280 280 281 282 284 285 283 282 282 282 282 282 282 282 282 282
278 278 278 278 278 278 279 279 278 278 278 278 278 277 277 277 277 277 277 277 278 278 278 278 278 279 278 279 279 279 278 278 278 278 278 278 278 278 278 278 278 278 278 278 278 278 279 279 280 283 284 285 286 284 283 282 282 282 282 281 281 281
277 278 278 277 278 278 278 278 278 277 277 277 276 276 276 276 276 276 276 276 276 277 277 277 277 277 277 277 277 276 276 276 275 275 276 276 276 277 277 277 277 278 278 278 278 277 278 278 281 283 284 284 285 285 283 282 282 282 282 282 282 281
277 278 277 277 277 277 277 277 276 276 275 275 275 276 275 275 274 274 274 274 275 275 275 275 275 275 275 274 273 273 273 273 273 273 273 273 274 275 274 275 275 276 276 277 276 277 277 277 281 282 283 283 284 284 283 281 281 281 281 281 281 281
277 277 277 277 277 276 275 275 274 274 274 274 274 274 273 272 272 272 272 273 273 273 273 273 272 272 271 271 271 271 271 271 271 272 272 273 273 273 273 273 273 274 274 275 275 275 276 276 279 281 282 282 283 283 283 280 280 281 281 281 281 281
276 276 276 276 275 274 273 273 273 272 272 273 272 272 271 271 271 271 271 271 271 271 271 271 269 269 269 269 269 269 269 269 269 270 270 271 270 270 270 270 270 271 272 272 273 273 273 274 278 279 280 281 282 283 283 279 279 279 280 280 280 280
275 276 275 274 273 272 272 271 272 271 271 271 270 270 269 269 269 269 269 269 269 269 269 268 267 266 266 266 266 266 266 266 266 266 267 267 267 267 268 268 268 268 268 269 270 270 270 271 276 277 278 280 281 281 278 278 277 277 278 278 279 279
275 274 273 272 271 270 270 270 270 269 269 268 268 268 267 267 266 267 268 267 267 266 266 266 265 264 264 264 263 263 263 263 263 264 265 264 264 264 264 265 265 266 266 267 267 268 268 270 272 276 277 278 279 278 275 276 276 276 276 277 277 278
273 273 272 270 269 269 269 269 268 267 266 266 266 265 265 265 265 266 265 265 265 264 264 264 263 262 262 261 261 261 262 262 262 262 263 262 262 262 263 263 263 264 265 265 265 266 266 266 269 273 274 275 276 275 273 274 274 274 275 276 277 277
272 271 270 269 268 268 268 267 265 265 264 264 264 264 263 264 265 264 263 263 264 263 263 262 262 261 261 260 260 260 260 260 261 261 262 262 262 261 262 262 262 262 263 263 264 265 264 263 265 270 272 273 274 273 271 272 272 273 273 274 274 275
271 269 268 267 266 267 265 264 264 262 263 263 264 263 262 263 263 263 263 263 263 262 262 261 261 260 260 260 260 260 260 260 260 260 260 260 260 260 260 261 261 260 261 262 262 262 263 263 264 266 271 272 273 274 271 271 271 271 272 273 273 273
270 268 267 267 266 265 264 263 262 261 262 262 262 261 262 263 263 262 262 262 261 261 260 260 260 259 259 259 259 260 259 260 259 259 259 259 259 259 259 259 259 259 260 261 261 262 262 263 263 264 270 271 272 273 272 269 270 270 271 271 272 272
267 266 265 265 264 264 263 262 260 261 261 260 260 260 262 262 262 261 260 260 260 259 259 259 259 259 259 259 259 258 258 259 259 259 258 259 258 258 258 258 259 259 259 260 261 261 262 263 265 264 268 270 271 272 273 269 269 270 270 270 270 271
265 265 264 264 263 263 263 259 258 258 259 259 260 261 261 261 261 260 259 259 258 258 258 258 258 258 258 258 258 258 257 258 258 258 258 257 257 257 257 258 258 258 259 259 260 261 261 262 263 267 265 269 271 271 272 272 271 273 271 269 269 269
263 263 263 263 262 261 261 259 257 258 258 258 261 261 260 259 259 259 258 258 257 257 257 257 257 258 257 257 257 257 256 257 257 257 257 257 257 257 257 257 258 258 258 258 258 260 261 261 262 265 268 267 270 271 272 272 272 272 269 268 268 268
261 261 261 262 260 260 259 258 256 257 256 259 259 259 259 258 257 257 256 256 256 256 257 257 257 257 257 257 257 256 257 256 256 256 257 257 257 257 256 257 257 257 257 257 257 258 259 260 261 262 264 268 269 271 271 271 272 272 272 268 267 268
259 259 258 259 259 259 259 257 257 255 258 259 259 259 258 257 256 256 256 256 256 257 257 256 256 257 257 257 257 257 257 256 256 256 256 256 256 256 256 256 256 256 257 257 257 258 259 260 260 261 262 264 266 266 268 270 271 271 272 271 269 272
259 258 257 257 258 258 258 256 256 257 258 257 259 258 257 255 256 256 256 256 256 256 256 256 256 257 257 257 257 257 257 257 256 256 256 256 255 255 255 256 256 256 257 257 257 258 259 260 260 261 262 262 262 262 263 264 265 268 270 267 266 268
257 256 256 257 258 257 256 256 255 256 256 257 257 256 255 255 256 256 256 256 256 256 256 256 257 257 256 256 256 256 256 256 256 255 255 255 255 255 256 256 257 257 258 258 259 260 261 261 262 262 262 262 263 263 264 264 264 264 264 264 265 265
256 255 255 256 257 256 254 255 256 256 256 258 256 255 254 255 256 256 255 255 256 256 256 256 256 256 256 256 256 256 257 256 256 256 257 258 259 259 259 259 261 262 263 263 263 263 262 263 263 264 268 268 270 268 268 267 266 265 265 267 270 269
255 255 255 256 256 255 254 255 256 256 257 256 255 255 254 255 255 255 255 255 255 255 256 256 256 256 256 256 256 256 256 260 263 262 260 260 264 267 268 268 264 264 265 264 265 265 263 263 265 270 272 272 272 272 273 272 273 273 272 273 275 273
255 254 254 255 255 254 255 255 255 255 256 256 256 255 254 254 255 255 255 255 255 256 256 256 255 256 256 256 256 256 256 256 258 264 266 266 266 267 268 269 269 270 270 267 265 266 271 271 271 272 272 272 272 272 273 273 273 274 274 274 271 270
254 254 254 255 255 254 254 254 255 255 255 255 254 255 254 254 254 254 255 255 255 256 256 256 256 256 256 256 257 256 256 255 255 256 262 266 266 267 268 268 269 269 270 270 269 267 266 269 271 271 271 272 272 272 272 273 273 274 274 275 275 270
255 254 254 253 253 253 254 254 255 255 255 255 255 255 255 255 255 254 254 254 255 255 256 256 256 256 256 256 256 256 256 255 255 255 255 258 265 266 267 267 268 269 269 270 270 271 270 270 271 271 271 272 272 272 272 273 274 274 275 275 271 269
253 252 253 252 253 253 254 255 255 255 255 255 255 254 253 254 254 254 254 254 255 255 255 255 256 256 256 256 256 256 256 256 256 255 256 256 256 258 262 265 266 267 268 269 269 270 271 271 272 272 272 272 272 273 273 273 271 274 274 272 268 267
252 253 254 255 255 255 254 254 255 255 255 254 253 253 253 254 254 254 255 256 256 255 255 255 256 256 256 256 256 256 256 256 257 257 257 256 256 256 256 257 259 264 267 265 267 269 270 271 271 272 272 272 272 272 273 273 268 267 267 267 267 266
253 253 254 254 254 254 253 254 255 255 254 253 252 253 253 253 253 254 254 255 255 255 255 255 255 256 256 256 256 256 257 257 257 257 257 257 257 257 257 258 259 259 264 267 268 269 269 270 271 271 271 272 272 273 273 267 265 265 265 265 266 266

ECMWFFLT1_sfc_thetae_048.txt.gz
Theta_e
281 281 281 282 283 283 284 285 285 285 285 285 285 284 285 284 285 285 285 285 285 285 284 284 284 284 284 283 283 283 284 283 284 284 284 284 284 284 284 284 283 284 284 284 284 284 284 284 284 284 284 284 284 285 285 285 286 285 285 286 286 286
281 281 281 282 283 284 285 285 285 285 285 284 285 285 285 284 284 284 284 285 284 284 284 283 282 281 281 281 281 282 281 282 282 282 282 282 282 282 282 283 283 283 283 283 283 283 284 284 284 284 284 284 284 284 284 285 285 285 285 286 286 286
284 285 285 284 284 283 283 283 284 284 283 283 283 283 283 283 283 283 283 283 283 282 282 282 281 281 280 280 280 280 280 280 280 280 280 281 282 282 282 281 282 282 282 282 283 283 283 283 283 283 283 283 283 283 283 284 284 284 285 285 285 286
283 283 283 282 283 282 282 282 282 283 284 283 282 283 282 283 282 283 283 282 282 281 281 281 281 281 280 280 280 280 281 281 281 281 281 281 282 281 282 281 281 281 280 281 282 282 282 282 282 282 283 282 282 282 284 284 283 283 283 284 284 285
283 282 282 282 282 282 282 282 283 282 282 282 281 282 282 282 282 282 282 281 281 281 280 280 280 280 280 280 280 279 280 280 280 281 281 281 282 281 281 281 281 281 281 280 281 281 281 282 282 282 282 282 282 282 282 283 283 282 282 282 283 284
283 283 283 283 282 282 281 281 281 281 281 281 282 281 281 281 281 282 281 281 281 280 280 280 280 280 280 280 279 279 279 279 280 280 280 281 280 281 281 281 281 280 280 280 280 281 281 281 281 281 281 281 281 281 281 282 282 282 282 282 282 283
280 281 281 281 281 281 281 281 281 280 281 281 281 281 281 281 281 281 281 281 280 279 278 278 278 278 278 278 278 278 278 278 279 279 279 279 279 279 280 280 280 280 280 280 280 280 281 281 281 280 281 281 281 281 281 281 281 282 282 282 282 283
279 279 279 279 280 279 280 280 280 279 279 279 279 279 279 279 279 279 279 278 278 278 277 277 277 277 277 278 278 278 278 278 278 278 279 278 278 279 279 279 279 280 279 280 280 280 280 280 280 280 280 280 281 281 281 281 281 281 281 281 282 282
278 279 278 278 279 278 278 278 278 278 278 277 277 277 277 277 277 277 277 277 276 277 276 276 277 277 277 277 278 278 278 278 278 278 278 278 278 278 278 279 279 279 279 279 279 279 280 280 280 280 280 280 280 280 280 280 280 280 280 281 281 281
278 278 278 278 277 276 277 277 277 277 277 277 277 277 277 278 277 276 276 276 276 276 276 276 277 277 277 277 277 277 277 277 277 277 277 277 277 277 277 277 278 278 278 279 279 279 279 279 279 279 280 280 280 280 279 279 279 279 279 280 280 281
279 278 278 277 276 277 278 278 277 277 276 276 276 276 276 276 275 275 275 275 275 275 276 276 276 276 276 276 276 276 276 276 276 276 275 275 275 276 276 276 276 276 276 277 277 278 278 278 278 279 279 279 279 280 280 280 280 280 279 279 280 280
277 276 276 277 277 277 277 277 277 276 276 276 275 275 275 274 274 274 274 274 274 274 274 274 274 274 274 274 274 273 273 272 272 272 272 272 273 273 274 274 274 275 274 275 275 276 276 277 277 279 281 281 280 279 280 280 280 280 279 279 280 280
276 277 277 277 277 277 277 277 276 275 274 274 274 274 274 273 273 273 272 272 273 273 273 273 273 273 272 272 271 270 270 270 270 270 270 270 270 271 271 272 272 272 273 273 273 273 274 274 275 278 280 281 282 280 278 278 278 279 279 279 278 278
277 277 277 277 277 276 276 275 274 274 273 273 273 273 272 272 272 271 271 271 272 272 272 272 272 271 270 270 269 269 268 268 268 268 268 268 268 269 269 269 269 270 270 270 270 270 270 271 274 276 277 278 279 279 277 277 277 278 278 278 278 278
277 277 277 276 276 274 274 274 273 272 272 272 272 272 271 270 270 270 270 271 271 271 271 270 269 268 268 267 267 267 266 266 266 266 266 266 266 267 266 267 266 266 267 267 267 267 268 268 271 274 275 276 277 278 277 276 276 276 276 276 277 277
277 277 276 275 274 273 272 272 272 272 272 271 270 270 270 269 269 269 269 269 269 269 269 268 266 266 265 265 265 265 264 264 264 264 264 265 265 264 264 264 264 264 264 265 265 265 265 265 268 273 274 275 276 276 276 274 274 275 275 276 276 276
277 275 273 272 272 272 271 271 270 270 270 270 269 269 268 268 267 267 268 267 267 266 265 265 264 264 264 263 263 263 262 262 262 263 263 263 263 263 262 262 262 263 263 263 263 263 263 264 270 272 273 273 274 274 274 271 271 271 272 273 274 275
276 274 272 272 271 270 270 269 269 268 268 268 268 267 265 266 265 265 266 265 264 264 265 264 263 262 262 262 262 261 261 261 261 261 262 262 262 262 262 262 262 261 261 262 262 262 262 263 269 270 271 272 273 274 270 269 269 269 269 270 271 272
274 272 271 270 270 269 269 269 267 267 266 266 266 265 264 264 263 264 264 263 263 263 263 263 262 261 261 261 260 260 260 260 260 260 261 260 260 261 260 260 261 261 261 261 261 261 261 261 265 269 270 271 272 271 268 268 268 268 268 269 270 270
272 271 270 269 268 268 268 267 265 265 264 264 264 263 264 262 263 264 262 262 262 262 262 262 261 260 260 259 259 259 260 260 260 260 260 260 259 259 259 260 260 260 260 260 260 260 260 261 264 268 269 270 271 271 268 267 267 267 267 268 269 270
271 270 269 268 266 266 266 264 263 263 263 263 263 263 261 262 263 262 262 262 262 262 261 261 260 260 259 259 259 259 259 259 259 259 260 259 259 259 259 259 259 259 259 259 260 262 261 260 262 267 268 270 271 269 268 267 267 266 266 267 267 269
269 268 266 265 266 265 264 263 262 261 262 262 263 261 260 262 262 262 262 262 262 261 260 260 259 259 258 258 258 258 258 259 259 259 259 258 258 258 258 258 258 258 258 259 259 259 260 260 260 263 268 269 270 271 268 267 266 266 266 267 267 267
269 267 265 265 265 264 263 262 261 261 261 261 261 260 261 261 261 261 261 261 260 259 259 259 258 258 258 258 258 258 258 258 258 258 258 257 257 257 257 257 257 257 258 259 259 259 260 260 260 262 268 269 270 271 270 267 267 267 266 266 266 267
266 265 264 264 264 263 262 260 259 260 260 260 259 259 261 261 261 260 259 259 259 258 258 257 257 258 257 258 257 257 257 258 258 257 257 257 257 256 256 256 257 257 257 258 259 259 259 261 263 262 266 269 270 271 272 268 267 268 267 267 267 267
264 264 263 263 262 262 262 258 257 258 259 258 259 260 259 260 259 259 258 258 257 257 257 257 256 257 257 257 257 257 256 257 257 256 257 256 256 256 255 256 256 257 257 257 258 259 259 260 261 265 264 268 270 271 272 272 270 272 269 268 266 267
264 263 262 262 261 260 261 257 256 257 257 258 260 259 259 258 257 257 256 256 256 256 256 256 256 256 256 256 256 256 256 256 256 256 256 256 256 255 255 256 256 256 256 256 257 258 259 260 260 263 267 266 270 271 272 272 273 273 270 269 268 268
262 262 261 261 259 259 257 257 256 256 255 258 258 257 256 256 254 255 255 254 254 255 255 255 255 255 255 255 255 255 256 256 255 255 256 256 255 255 255 255 255 255 255 256 256 257 258 259 260 261 263 268 269 271 271 272 272 273 273 269 269 269
259 258 258 259 258 258 258 257 256 254 256 258 257 256 255 254 253 254 254 254 255 255 255 255 255 255 255 255 256 255 256 255 255 255 255 255 255 255 255 255 255 255 255 256 257 257 258 260 261 261 261 264 266 267 269 271 272 272 273 272 270 273
258 257 257 256 258 257 257 256 255 256 257 256 257 257 254 252 253 254 254 254 254 254 254 254 255 255 256 255 255 256 256 256 255 255 255 255 255 255 255 255 255 256 257 258 258 259 261 261 262 263 263 263 263 263 265 266 266 269 271 268 266 268
258 256 256 256 258 257 256 255 254 255 255 255 256 253 252 253 253 254 254 254 254 254 254 254 256 256 255 255 255 255 255 256 255 255 255 255 256 255 256 256 257 258 258 259 260 262 263 263 264 264 264 265 265 266 266 266 265 264 264 265 265 266
256 256 255 256 257 256 255 253 254 253 255 256 254 253 251 253 254 254 253 253 254 254 255 255 255 255 255 255 255 255 256 255 256 256 257 259 259 258 258 258 259 260 262 263 263 263 263 263 264 265 269 269 273 270 269 268 268 268 267 269 272 269
255 254 254 255 256 254 253 253 253 253 256 254 253 252 251 253 253 252 252 253 253 254 254 254 254 254 255 254 255 255 255 259 263 263 261 261 264 268 269 269 265 266 266 266 266 266 265 264 266 272 273 273 274 274 275 274 275 275 273 274 275 273
255 254 253 255 255 253 253 253 253 253 254 255 254 253 252 251 252 253 253 253 253 254 255 254 254 255 255 255 255 255 255 255 257 263 266 266 266 267 269 269 270 271 271 268 266 267 271 272 272 273 273 273 273 274 274 274 275 275 275 275 272 270
254 254 254 255 254 253 252 252 252 252 253 252 252 252 251 251 252 252 253 253 253 254 254 254 254 255 255 255 255 255 255 255 254 256 262 265 265 266 267 268 269 270 270 270 269 268 266 269 272 273 273 273 273 274 274 274 275 275 275 275 275 269
255 254 254 253 252 251 252 251 252 252 252 253 252 252 252 253 252 252 252 253 253 254 254 255 254 254 254 254 254 254 255 254 254 254 255 258 264 265 266 266 267 268 268 269 270 270 270 270 271 272 272 273 273 274 273 273 274 275 275 274 269 265
253 253 252 251 251 251 251 252 253 253 252 253 253 251 250 250 251 252 252 252 253 253 254 254 254 254 254 255 255 254 255 255 255 255 255 255 256 257 261 263 264 265 267 268 269 269 270 270 271 271 272 272 273 274 273 273 271 273 273 270 266 264
252 251 252 253 253 253 253 253 253 253 252 251 250 249 249 250 251 251 253 255 255 254 254 254 255 254 254 254 254 254 255 255 256 256 256 255 255 255 255 256 258 262 266 264 265 267 269 269 270 270 271 272 272 272 272 271 266 264 264 265 265 265
253 252 252 253 252 252 250 252 253 253 251 249 249 249 249 250 251 252 253 253 254 254 254 254 254 254 254 254 255 256 256 256 256 256 255 256 256 256 256 256 257 258 263 266 266 267 267 268 269 270 271 270 270 269 269 262 262 263 263 264 264 265